weather.gov     
National Weather Service

Regional Weather Roundup
NWS Homepage
This page is being discontinued on March 12, 2014.
The same data is available at this site. Please update your bookmarks.
Thank you, and we apologize for the inconvenience.
Please send an email to SR-SRH.Webmaster@noaa.gov with any concerns.


Current Version
Previous Version:    01  02  03  04  05  06  07  08  09  10  11  12  13  14  15  16  17  18  19  20  21  22  23  24  25  26  27  
[Printable]
812
ASUS42 KTBW 301910
RWRFL
FLORIDA REGIONAL WEATHER ROUNDUP
NATIONAL WEATHER SERVICE TAMPA BAY RUSKIN FL
300 PM EDT THU OCT 30 2014

NOTE: "FAIR" INDICATES FEW OR NO CLOUDS BELOW 12,000 FEET WITH NO
SIGNIFICANT WEATHER AND/OR OBSTRUCTIONS TO VISIBILITY.


FLZ001>010-012>015-112-114-115-302000-
PANHANDLE FLORIDA

CITY           SKY/WX    TMP DP  RH WIND       PRES   REMARKS
PENSACOLA      SUNNY     72  42  34 N13G18    30.00F
PENSACOLA NAS  SUNNY     73  44  35 N8G22     30.00F
MILTON NAS     MOSUNNY   71  42  35 N9        30.01F
CRESTVIEW      SUNNY     72  43  35 N10G20    30.01F
DUKE FIELD     SUNNY     71  42  35 N7        30.00F
VALPARAISO     SUNNY     72  42  33 NE13      29.99F
MARY ESTHER    SUNNY     73  37  27 N14       29.98F
TRI COUNTY     FAIR      72  43  35 N7        29.99F
PANAMA CITY    FAIR      74  43  32 N12       29.97F
TYNDALL AFB    SUNNY     75  51  43 VRB5      29.97F
APALACHICOLA   MOSUNNY   76  54  46 NE9       29.95F

STATION/POSITION SKY/WX   TEMP    WIND        PRES    WAVE   SWELL
                          AIR SEA DIR/SP/G            HT/PER HT/PER
                          (F)     (DEG/KT/KT) (MB)    (FT/S) (FT/S)
30.1N   87.6W              69 77   20/ 10/ 14 1015.8F   2/ 5   2/ 5
29.2N   88.2W              69 78   40/ 17/ 19 1016.7F   4/ 6
28.8N   86.0W              72 79   10/ 12/ 16 1014.0F   3/ 5
PANAMA CITY BEAC           71 77   10/  8/ 14 1015.0F
CAPE SAN BLAS    NOT AVBL
TOWER C                    69     360/  8/ 10 1013.8F
28.5N   84.5W              74 80   30/ 12/ 14 1013.3F   3/ 5   2/ 6

$$
FLZ011-016>038-118-127-128-134-139-239-302000-
NORTH FLORIDA

CITY           SKY/WX    TMP DP  RH WIND       PRES   REMARKS
MARIANNA       SUNNY     73  40  30 NW8       29.97F
TALLAHASSEE    PTSUNNY   70  50  49 E3        29.96F
PERRY          MOSUNNY   73  57  56 N5        29.94F
CROSS CITY       N/A     79  65  62 VRB3      29.91F
LAKE CITY      PTSUNNY   77  64  65 NW8       29.92F
GAINESVILLE    PTSUNNY   77  66  68 NW6       29.91F
MAYPORT NAS    PTSUNNY   77  65  66 E10       29.91F
JACKSONVILLE   PTSUNNY   79  63  57 NW3       29.90F
JAX NAS        PTSUNNY   81  63  54 NE6       29.91F
JAX CRAIG      PTSUNNY   79  63  57 N6        29.90F
JAX CECIL      PTSUNNY   81  64  57 CALM      29.90F
ST AUGUSTINE   CLOUDY    74  68  81 NE7       29.92F HAZE

STATION/POSITION SKY/WX   TEMP    WIND        PRES    WAVE   SWELL
                          AIR SEA DIR/SP/G            HT/PER HT/PER
                          (F)     (DEG/KT/KT) (MB)    (FT/S) (FT/S)
SHELL POINT                68     360/  7/ 11   N/A
KEATON BEACH               74     280/  9/ 11 1013.4F
CEDAR KEY                  75     320/  3/  4 1014.2F
FERNANDINA                 74 75  360/  5/  6 1012.3F
30.7N   81.3W                 77                N/A     1/ 3
MAYPORT                    73 76   70/  8/  9   N/A
31.4N   80.9W              70 75   30/ 10/ 12 1013.0F   1/ 9
ST AUGUSTINE               72      30/  6/  7 1013.6F

$$
FLZ040-043>046-052-053-057-058-063-144-302000-
INTERIOR CENTRAL FLORIDA

CITY           SKY/WX    TMP DP  RH WIND       PRES   REMARKS
OCALA          PTSUNNY   81  63  54 CALM      29.92F
THE VILLAGES     N/A     81  61  50 VRB6      29.81F
LEESBURG       PTSUNNY   79  63  57 NW6       29.92F
SANFORD        PTSUNNY   82  64  54 N8        29.90F
ORLANDO EXEC   MOSUNNY   82  65  56 W7        29.90F
ORLANDO INTL   PTSUNNY   83  63  50 CALM      29.90F
KISSIMMEE      MOSUNNY   82  66  57 S6        29.90F
WINTER HAVEN   PTSUNNY   83  64  52 N5        29.92F
LAKELAND       PTSUNNY   81  64  57 W6        29.91F
OKEECHOBEE     PTSUNNY   81  64  57 MISG      29.90F

$$
FLZ041-047-054-059-064-141-147-302000-
EAST CENTRAL FLORIDA

CITY           SKY/WX    TMP DP  RH WIND       PRES   REMARKS
ORMOND BEACH   MOSUNNY   77  66  69 E6        29.90F
DAYTONA BEACH  PTSUNNY   81  63  54 E3        29.90F
DELAND         MOCLDY    81  59  47 NW7       29.92F
NEW SMYRNA BEA MOSUNNY   79  68  69 NE7       29.91F
JFK SPACE CTR  MOSUNNY   84  64  51 NW5       29.89F
TITUSVILLE     MOSUNNY   82  64  54 E12       29.99R
CAPE CANAVERAL MOSUNNY   81  67  62 E7        29.89F
PATRICK AFB    MOSUNNY   81  66  60 E9        29.89F
MELBOURNE      MOSUNNY   82  65  56 E10       29.89F
VERO BEACH     MOSUNNY   82  58  43 E9        29.89F
FT PIERCE      MOSUNNY   84  60  44 E8        29.89F
STUART         MOSUNNY   81  59  47 N7        29.90F

STATION/POSITION SKY/WX   TEMP    WIND        PRES    WAVE   SWELL
                          AIR SEA DIR/SP/G            HT/PER HT/PER
                          (F)     (DEG/KT/KT) (MB)    (FT/S) (FT/S)
28.5N   80.2W              76 80  330/  6/  6 1013.1F
28.9N   78.5W              79 83  320/  2/  4 1012.7F   3/ 7   3/ 7
TRIDENT PIER               80 78   60/  7/  9 1012.0F
28.4N   80.5W                 80                N/A     1/ 8
27.6N   80.2W                 80                N/A     1/ 7

$$
FLZ050-056-061-142-242-148-248-149-249-151-251-155-255-
160-260-302000-
WEST CENTRAL FLORIDA

CITY           SKY/WX    TMP DP  RH WIND       PRES   REMARKS
CRYSTAL RIVER  FAIR      81  61  50 CALM      29.91F
INVERNESS      FAIR      81  63  54 CALM      29.92F
BROOKSVILLE    MOSUNNY   81  59  47 CALM      29.91F
ZEPHYRHILLS    MOCLDY    79  61  53 CALM      29.92F
CLEARWATER     PTSUNNY   78  65  63 N3        29.91F
TAMPA INTL     CLOUDY    79  64  60 NW5       29.90F
TAMPA EXEC     CLOUDY    81  64  57 N5        29.91F
PLANT CITY     CLOUDY    84  63  48 CALM      29.93F
MACDILL AFB    PTSUNNY   82  67  58 NW2       29.91F
ST PETERSBURG  PTSUNNY   79  65  62 NE3       29.90F
SARASOTA       MOSUNNY   83  62  49 SW10      29.89F
VENICE           N/A     81  68  65 SW12      29.91F

STATION/POSITION SKY/WX   TEMP    WIND        PRES    WAVE   SWELL
                          AIR SEA DIR/SP/G            HT/PER HT/PER
                          (F)     (DEG/KT/KT) (MB)    (FT/S) (FT/S)
CEDAR KEY                  75     320/  3/  4 1014.2F
28.5N   84.5W              74 80   30/ 12/ 14 1013.3F   3/ 5   2/ 6
27.3N   84.3W                 80                N/A     1/ 5
CLEARWATER BEACH           76 77  340/  3/  4 1012.8F
MIDDLE TAMPA BAY           78     300/  3/  5 1013.1F
VENICE                     78 79  220/ 10/ 10 1012.3F

$$
FLZ066-069-070-075>078-162-262-165-265-302000-
SOUTHWEST FLORIDA AND KEYS

CITY           SKY/WX    TMP DP  RH WIND       PRES   REMARKS
PUNTA GORDA    MOSUNNY   86  63  45 NW8       29.91F
FT MYERS       PTSUNNY   83  66  56 S7        29.89F
SOUTHWEST INTL CLOUDY    83  66  56 SW8       29.89F
NAPLES         MOSUNNY   83  69  62 SW12      29.89F
MARCO ISLAND   PTCLDY    84  70  61 SW7       29.90F
MARATHON       SUNNY     82  70  66 N6        29.90F
KEY WEST NAS   MOSUNNY   83  63  50 S6        29.91F
KEY WEST INTL  SUNNY     81  67  62 S6        29.91F

STATION/POSITION SKY/WX   TEMP    WIND        PRES    WAVE   SWELL
                          AIR SEA DIR/SP/G            HT/PER HT/PER
                          (F)     (DEG/KT/KT) (MB)    (FT/S) (FT/S)
VENICE                     78 79  220/ 10/ 10 1012.3F
NAPLES                     78 83  230/ 10/ 12 1013.0F
26.0N   85.6W              79 81  310/ 12/ 16 1013.5F   2/ 5
DRY TORTUGAS               79     130/  2/  3 1013.5F
NW FL BAY                  79     240/  4/  5 1013.7F
SAND KEY                   79      80/  2/  3 1013.0F
SOMBRERO KEY               79     350/  3/  4 1013.5F
LONG KEY                   79 80  300/  1/  2 1014.1F
MOLASSES REEF              82 82   CALM  /  1 1012.3F

$$
FLZ067-068-071>074-168-172>174-302000-
SOUTHEAST FLORIDA

CITY           SKY/WX    TMP DP  RH WIND       PRES   REMARKS
W PALM BEACH   PTSUNNY   83  61  47 E8        29.88F
FT LAUDER-EXEC MOSUNNY   83  61  47 E8        29.89F
FT LAUDERDALE  PTSUNNY   85  63  47 E9        29.88F
POMPANO BEACH  PTSUNNY   84  62  47 E9        29.89F
PEMBROKE PINES MOSUNNY   84  62  47 E9        29.90F
OPA LOCKA      PTSUNNY   84  63  49 E7        29.89F
MIAMI          PTSUNNY   82  62  50 SE5       29.89F
WEST KENDALL   CLOUDY    85  65  51 SW7       29.89F
HOMESTEAD      SUNNY     83  65  54 E8        29.89F

STATION/POSITION SKY/WX   TEMP    WIND        PRES    WAVE   SWELL
                          AIR SEA DIR/SP/G            HT/PER HT/PER
                          (F)     (DEG/KT/KT) (MB)    (FT/S) (FT/S)
PORT EVERGLADES            80      60/  8/ 10 1012.1
VIRGINIA KEY               80 80  110/  4/  5 1012.9S
LAKE WORTH                 80 82   60/  8/  9 1012.1F
FOWEY ROCKS                79 80   60/  2/  2 1012.4F
SETTLEMENT POINT           78      10/  7/  9 1012.6F

$$





U.S. Dept. of Commerce
NOAA National Weather Service
1325 East West Highway
Silver Spring, MD 20910
E-mail: w-nws.webmaster@noaa.gov
Page last modified: May 16, 2007
NATIONAL WEATHER SERVICE: for Safety, for Work, for Fun - FOR LIFE